Home > Weather > Monza > Past weeks

Flag for Italy Past Weather in Monza, Italy — Yesterday and Last 2 Weeks

Now
72 °F

Clear.


Feels Like: 75 °F
Forecast: 69 / 79 °F
Wind: No wind

Location: Milan / Linate

Current Time: Aug 29, 2016 at 6:01:28 AM

Latest Report: Aug 29, 2016 at 5:20 AM


Visibility: 10 mi

Pressure: 30.01 "Hg

Humidity: 69%

Dew Point: 61 °F

Location of MonzaLocation

Past Weather in Monza — Graph

°F

Monza Temperature Yesterday

Maximum temperature yesterday: 91 °F (at 4:50 PM)
Minimum temperature yesterday: 66 °F (at 6:50 AM)
Average temperature yesterday: 79 °F

High & Low Weather Summary for the Past Weeks

 TemperatureHumidityPressure
High91 °F (Aug 28, 4:50 PM)94% (Aug 14, 4:20 AM)30.27 "Hg (Aug 14, 4:20 AM)
Low64 °F (Aug 14, 4:20 AM)26% (Aug 22, 12:20 AM)29.74 "Hg (Aug 17, 6:20 PM)
Average76 °F61%30.04 "Hg
* Reported Aug 14 4:20 AM — Aug 29 4:20 AM, Monza, Weather by CustomWeather, © 2016

Note: Actual official high and low records may vary slightly from our data, if they occured in-between our weather recording intervals... More about our weather records

Advertising

Monza Weather History for the Previous 24 Hours

Scroll right to see more
 ConditionsComfort  
Time TempWeatherWind HumidityBarometerVisibility
4:20 AM
Mon, Aug 29
75 °FClear.No wind57%30.04 "Hg10 mi
3:50 AM75 °FClear.2 mph57%30.04 "Hg10 mi
3:20 AM75 °FClear.2 mph57%30.04 "Hg10 mi
2:50 AM75 °FClear.1 mph57%30.04 "Hg10 mi
2:20 AM75 °FClear.2 mph57%30.04 "Hg10 mi
1:50 AM77 °FClear.3 mph51%30.04 "Hg10 mi
1:20 AM77 °FClear.3 mph51%30.04 "Hg10 mi
12:50 AM77 °FClear.2 mph54%30.04 "Hg10 mi
12:20 AM79 °FClear.2 mph48%30.04 "Hg10 mi
11:50 PM
Sun, Aug 28
79 °FPassing clouds.5 mph48%30.04 "HgN/A
11:20 PM79 °FPassing clouds.7 mph48%30.04 "HgN/A
10:50 PM79 °FPassing clouds.5 mph48%30.04 "HgN/A
10:20 PM81 °FPassing clouds.7 mph42%30.04 "HgN/A
9:50 PM81 °FPassing clouds.8 mph42%30.04 "HgN/A
9:20 PM81 °FPassing clouds.6 mph39%30.01 "HgN/A
8:50 PM82 °FPassing clouds.7 mph40%30.01 "HgN/A
8:20 PM84 °FSunny.2 mph40%30.01 "Hg10 mi
7:50 PM86 °FSunny.No wind40%29.98 "Hg10 mi
7:20 PM90 °FSunny.1 mph31%29.98 "Hg10 mi
6:50 PM90 °FPassing clouds.3 mph29%29.98 "HgN/A
6:20 PM91 °FPassing clouds.3 mph28%29.98 "HgN/A
5:50 PM91 °FSunny.3 mph28%30.01 "Hg10 mi
5:20 PM91 °FPassing clouds.5 mph28%30.01 "HgN/A
4:50 PM91 °FPassing clouds.6 mph28%30.01 "HgN/A
4:20 PM90 °FPassing clouds.7 mph29%30.01 "HgN/A
3:50 PM90 °FPassing clouds.6 mph31%30.01 "HgN/A
3:20 PM90 °FPassing clouds.6 mph29%30.04 "HgN/A
2:50 PM90 °FPassing clouds.6 mph31%30.04 "HgN/A
11:50 AM84 °FPassing clouds.3 mph40%30.09 "HgN/A
11:20 AM82 °FPassing clouds.3 mph45%30.09 "HgN/A
10:50 AM81 °FSunny.2 mph51%30.09 "Hg10 mi
10:20 AM79 °FSunny.2 mph58%30.09 "Hg10 mi
9:50 AM79 °FSunny.2 mph58%30.09 "Hg10 mi
9:20 AM77 °FSunny.2 mph61%30.09 "Hg10 mi
8:50 AM75 °FSunny.2 mph65%30.09 "Hg10 mi
8:20 AM73 °FClear.2 mph69%30.09 "Hg5 mi
7:50 AM70 °FClear.1 mph83%30.09 "Hg5 mi
7:20 AM68 °FClear.1 mph88%30.09 "Hg4 mi
6:50 AM66 °FClear.No wind94%30.09 "Hg10 mi
6:20 AM68 °FClear.No wind88%30.07 "Hg10 mi
Weather by CustomWeather, © 2016

See weather overviewHow to use our weather pages